Location: Ch�risy
(50.2331°N, 2.9131°E)
Time: 10:36:10
(UTC+00:00)

Daily predictions for brighter satellites

Satellite Brightness Start Highest point End
(mag) Time Altitude Azimuth Time Altitude Azimuth Time Altitude Azimuth
Cosmos 1908 3.2 16:46:43 10° N 16:50:33 61° ENE 16:54:23 10° SSE
Cosmos 2219 3.9 16:45:45 10° SW 16:51:23 55° NW 16:57:02 10° NNE
ATLAS 2AS CENTAUR R/B 3.2 16:43:52 10° SSW 16:51:41 65° SE 16:59:24 10° NE
Lacrosse 5 2.5 16:48:18 10° WNW 16:53:04 39° N 16:57:50 10° ENE
PSLV R/B 4.0 16:49:55 10° S 16:53:35 70° WSW 16:57:20 10° NNW
H-2A R/B 4.1 16:50:47 10° S 16:54:22 43° W 16:57:57 10° NNW
Cosmos 1707 3.8 16:55:04 10° SSW 16:58:47 47° WNW 17:02:32 10° N
Cosmos 1634 Rocket 4.2 16:53:22 10° N 16:59:28 52° ENE 17:05:33 10° SSE
Okean-O 4.0 17:01:28 10° ESE 17:04:34 19° ENE 17:07:40 10° NNE
AQUARIUS 4.1 17:01:11 10° SSE 17:05:40 77° ENE 17:10:10 10° NNW
COSMO-SKYMED 1 3.8 17:03:33 10° NE 17:07:00 22° E 17:10:24 10° SE
Landsat 5 3.3 17:05:19 10° NNE 17:09:23 80° ESE 17:13:16 10° SSW
Cosmos 1536 Rocket 3.6 17:05:14 10° S 17:09:33 65° E 17:13:57 10° NNE
Cosmos 2227 Rocket 3.0 17:04:24 10° SW 17:09:54 50° NW 17:15:26 10° NNE
SeaSat 1 3.9 17:06:19 10° NNE 17:10:42 32° NW 17:15:03 10° WSW
Cosmos 1674 2.7 17:07:55 10° S 17:11:45 88° ESE 17:15:37 10° N
RESURS DK-1 3.0 17:08:30 10° S 17:12:21 38° ESE 17:16:12 10° NE
Okean O Rocket 1.6 17:08:15 10° SSE 17:12:42 78° ENE 17:17:09 10° NNW
ERS-2 3.9 17:12:02 12° ENE 17:13:36 14° E 17:15:37 10° SE
CZ-4C R/B 2.8 17:12:25 10° NNE 17:15:36 79° WNW 17:18:44 10° SSW
CZ-4B R/B 2.6 17:13:00 10° NE 17:15:54 25° E 17:18:43 10° SSE
SL-24 R/B 4.3 17:16:53 10° SSE 17:21:12 82° WSW 17:25:46 10° NNW
CZ-4C R/B 2.1 17:17:22 10° SW 17:22:25 87° SE 17:28:31 10° NE
CZ-4B R/B 3.5 17:19:32 10° S 17:25:03 75° WSW 17:30:42 10° NNW
USA 234 3.6 17:19:06 11° E 17:25:10 51° N 17:31:29 10° WNW
Cosmos 1844 Rocket 4.5 17:23:43 10° ESE 17:25:20 11° E 17:25:29 11° E
Tsikada Rocket 4.1 17:19:21 10° S 17:25:43 89° E 17:32:02 10° N
Cosmos 1400 Rocket 3.7 17:22:10 10° NNW 17:26:13 55° W 17:30:12 10° S
FengYun 1-2 T 4.3 17:20:49 10° SSE 17:26:23 87° WSW 17:32:01 10° NNW
TIMED 4.5 17:22:30 10° NNW 17:26:52 62° ENE 17:31:11 10° SE
Cosmos 783 Rocket 4.4 17:23:45 10° NNW 17:28:59 68° ENE 17:34:12 10° SSE
CZ-2D R/B 3.6 17:25:43 10° SE 17:29:22 42° ENE 17:33:03 10° N
Cosmos 1354 Rocket 4.2 17:25:32 10° S 17:30:40 52° ESE 17:35:51 10° NNE
Meteor 2-5 Rocket 3.8 17:25:29 10° S 17:30:57 57° E 17:36:22 10° NNE
Cosmos 1603 3.7 17:25:32 10° NNW 17:31:17 87° ENE 17:37:01 10° SSE
SL-14 R/B 3.3 17:27:38 10° S 17:31:24 53° E 17:35:14 10° NNE
Cosmos 1025 Rocket 3.9 17:28:09 10° SSW 17:32:21 51° WNW 17:36:38 10° N
IRS-1C Rocket 4.2 17:29:00 10° SE 17:34:04 51° ENE 17:39:09 10° N
Cosmos 2297 Rocket 3.7 17:30:03 10° WSW 17:35:03 31° NW 17:40:03 10° NNE
Cosmos 2142 Rocket 4.4 17:29:54 10° N 17:36:06 67° ENE 17:42:12 10° SSE
COSMOS 2455 4.0 17:33:17 10° SSE 17:37:52 23° ESE 17:40:26 18° ENE
ATLAS 3B R/B 3.2 17:31:23 10° NW 17:38:15 67° SW 17:45:24 10° SSE
Cosmos 1486 Rocket 4.3 17:36:41 10° SSW 17:41:55 71° WNW 17:47:10 10° NNE
Cosmos 1606 Rocket 3.5 17:38:36 10° N 17:42:58 65° ENE 17:47:20 10° SSE
YAOGAN 1 3.0 17:40:58 10° SE 17:44:56 37° ENE 17:48:56 10° N
Cosmos 968 Rocket 3.9 17:40:07 10° SW 17:45:11 63° WNW 17:50:17 10° NNE
Cosmos 1892 Rocket 4.2 17:41:26 10° SSE 17:45:20 33° E 17:48:30 14° NNE
H-2A R/B 2.5 17:41:06 10° N 17:45:36 68° WNW 17:49:59 10° SSW
Cosmos 1626 2.4 17:46:28 10° SSW 17:50:09 70° W 17:53:51 10° N
CZ-2C R/B 3.1 17:45:17 10° SSE 17:50:28 68° ENE 17:55:59 10° N
CSL-04 Rocket 4.3 17:45:56 10° SE 17:50:44 34° ENE 17:55:36 10° N
Cosmos 1939 Rocket 3.1 17:46:54 10° S 17:51:02 77° W 17:55:09 10° NNW
CZ-4 R/B 4.3 17:48:25 10° SSE 17:52:31 69° ENE 17:56:40 10° N
CSL-04 DEB 4.4 17:50:15 10° NNE 17:54:33 87° ESE 17:58:42 10° SSW
SKYMED 2 3.5 17:50:59 10° NNE 17:55:19 63° ESE 17:59:38 10° S
MOS 1 Rocket 3.3 17:52:41 10° NNE 17:56:57 48° E 18:01:05 10° S
CZ-4 R/B 1.5 17:53:04 10° SSE 17:57:05 53° ENE 18:01:04 10° N
ATLAS 5 CENTAUR R/B 1.5 17:54:51 10° SSW 17:58:50 62° SE 18:01:05 27° NE
CREW DRAGON DEMO-1 DEB 2.7 17:59:51 10° W 18:02:44 62° N 18:03:09 53° NE
Meteor 2-10 Rocket 3.6 17:57:54 10° N 18:03:31 61° ENE 18:08:50 10° SSE
NOSS 3-1 (C) 4.4 17:58:44 10° NW 18:05:11 40° NNE 18:09:09 25° ENE
Cosmos 2058 Rocket 3.1 18:03:10 10° N 18:07:37 59° ENE 18:12:04 10° SSE
Feng Yun 1-1 Rocket 4.5 18:02:22 10° S 18:07:45 71° WSW 18:13:17 10° NNW
Cosmos 2228 3.4 18:03:40 10° NNW 18:07:54 65° W 18:12:07 10° S
Cosmos 1503 Rocket 4.3 18:03:54 10° SSW 18:09:15 73° WNW 18:14:35 10° NNE
Cosmos 1315 Rocket 3.6 18:05:40 10° NNW 18:09:32 53° W 18:13:24 10° S
SJ 16-02 3.3 18:07:46 10° SSE 18:08:46 14° SE 18:08:46 14° SE
H-2A R/B 1.9 18:06:47 10° SSE 18:11:41 62° ENE 18:16:43 10° N
Cosmos 2263 Rocket 2.2 18:06:41 10° SSW 18:12:23 83° WNW 18:17:05 16° NNE
USA-17 4.4 18:09:17 10° SW 18:12:49 68° NW 18:13:39 44° NNE
SAR-Lupe-4 3.7 18:12:53 46° E 18:12:58 46° E 18:16:25 10° S
EXPRESS MD2 4.4 18:05:49 10° WNW 18:14:19 68° SSW 18:16:50 26° SE
Okean 1-7 Rocket 3.9 18:10:24 10° SSE 18:14:43 45° E 18:16:13 33° NE
Cosmos 1455 3.9 18:11:58 10° N 18:13:18 19° NNE 18:13:18 19° NNE
Meteor 1-24 Rocket 3.6 18:11:57 10° SSW 18:17:19 80° WNW 18:22:40 10° N
Cosmos 1300 4.0 18:14:13 10° NNW 18:17:50 41° W 18:21:26 10° SSW
OPS 8737 4.3 18:16:03 10° NW 18:19:08 89° NE 18:20:11 44° SE
USA 229 4.5 18:13:56 10° NW 18:20:28 38° NNE 18:23:08 29° ENE
USA 229 DEB 4.5 18:13:57 10° NW 18:20:29 38° NNE 18:23:09 29° ENE
Cosmos 1689 Rocket 4.2 18:22:28 17° S 18:22:28 17° S 18:23:18 10° S
Cosmos 923 Rocket 4.4 18:16:12 10° NNW 18:21:17 41° ENE 18:22:20 37° E
SAR-Lupe-1 4.0 18:24:36 61° ESE 18:24:36 61° ESE 18:27:59 10° S
NOSS 3-4 (A) 4.3 18:19:40 10° W 18:25:21 42° NNW 18:29:31 20° NNE
NOSS 3-4 (C) 4.3 18:19:46 10° W 18:25:27 42° NNW 18:29:37 20° NNE
GENESIS II 4.1 18:21:51 10° SW 18:25:52 87° SE 18:26:42 55° NE
Cosmos 1943 4.4 18:21:48 10° NW 18:27:08 42° WSW 18:32:25 10° S
Cosmos 1680 Rocket 4.0 18:24:55 10° NNW 18:29:32 37° NE 18:29:32 37° NE
Cosmos 1726 Rocket 4.3 18:26:54 10° NNW 18:31:08 53° W 18:35:23 10° S
Helios 1A Rocket 2.8 18:27:11 10° SSE 18:31:19 85° ENE 18:35:30 10° NNW
USA 267 3.9 18:29:51 32° ESE 18:31:21 35° SE 18:37:13 10° SSW
Meteor 2-13 Rocket 4.4 18:25:38 10° S 18:31:36 59° E 18:37:37 10° NNE
SJ-11-01 4.2 18:29:04 10° SSE 18:33:46 87° ENE 18:38:30 10° NNW
ARGOS 3.0 18:29:03 10° SSE 18:34:23 71° ENE 18:39:45 10° N
CSL-04 Debris 4.0 18:30:20 10° SSE 18:35:43 75° ENE 18:41:07 10° NNW
NOSS 3-1 (A) 4.5 18:29:26 10° NW 18:35:54 40° NNE 18:38:03 34° ENE
Lacrosse 5 1.8 18:31:34 10° WNW 18:36:39 72° NNE 18:37:41 54° E
Meteor 1-21 Rocket 4.3 18:32:34 10° SSE 18:37:51 48° E 18:38:13 48° E
Cosmos 2082 Rocket 4.0 18:34:58 10° N 18:37:45 17° NNE 18:37:45 17° NNE
Okean-O 3.0 18:36:13 10° S 18:40:37 64° WSW 18:45:03 10° NNW
CZ-2C R/B 3.5 18:43:09 33° SE 18:43:09 33° SE 18:46:44 10° SSE
USA 281 4.1 18:42:04 29° NE 18:42:04 29° NE 18:47:15 10° NNW
ATLAS 2AS CENTAUR R/B 3.7 18:35:24 10° WSW 18:43:04 50° NNW 18:48:02 22° NNE
COSMO-SKYMED 1 3.6 18:39:13 10° N 18:43:22 46° WNW 18:47:31 10° SW
Cosmos 1833 Rocket 4.0 18:39:09 10° NNW 18:42:29 23° NNE 18:42:29 23° NNE
ERS-2 2.8 18:46:36 42° NNW 18:47:27 53° WNW 18:51:00 10° SSW
CZ-4B R/B 3.6 18:45:36 13° NNW 18:48:03 26° WNW 18:50:55 10° SW
RESURS DK-1 4.0 18:46:47 10° WSW 18:50:27 30° NW 18:52:07 22° N
Cosmos 158 Rocket 3.9 18:45:18 10° NNW 18:50:36 72° ENE 18:51:25 61° ESE
Meteor 2-1 Rocket 4.4 19:01:30 10° NNW 19:07:05 68° W 19:12:33 10° S
USA 234 3.1 19:06:28 58° ESE 19:07:53 81° NNE 19:14:27 10° WNW
Cosmos 1844 Rocket 2.8 19:02:30 10° SSW 19:07:13 57° SSE 19:07:13 57° SSE
CZ-4C R/B 3.6 19:06:46 10° W 19:11:43 33° NNW 19:13:43 27° NNE
Iridium 4 Rocket 3.6 19:09:35 10° N 19:15:28 88° E 19:15:35 86° SSE
Meteor 2-8 Rocket 4.2 19:09:38 10° N 19:15:45 82° E 19:16:19 74° SE
Cosmos 1092 Rocket 3.8 19:10:08 10° S 19:16:21 81° E 19:17:18 65° NNE
COSMOS 2455 2.8 19:17:08 10° SW 19:23:11 79° NW 19:23:38 74° N
Cosmos 2344 4.1 19:14:26 10° NW 19:23:18 72° NE 19:26:40 50° ESE
CZ-4 R/B 4.2 19:29:36 10° SW 19:32:24 18° W 19:35:12 10° NW
ATLAS 5 CENTAUR R/B 3.5 19:40:02 10° W 19:42:38 26° NW 19:42:38 26° NW
SJ 16-02 3.9 19:45:00 10° SW 19:45:49 15° SW 19:45:49 15° SW
H-2A R/B 4.4 19:47:54 10° SW 19:51:35 21° W 19:55:20 10° NW
NOSS 3-1 (C) 3.9 19:49:31 10° NW 19:56:35 84° WNW 19:56:35 84° WNW
Cosmos 2263 Rocket 4.2 19:52:52 10° W 19:57:12 22° NW 19:58:48 19° NNW
USA 229 4.2 20:05:01 10° NW 20:10:35 58° NW 20:10:35 58° NW
USA 229 DEB 4.2 20:05:01 10° NW 20:10:37 58° NW 20:10:37 58° NW
USA 267 4.1 20:17:12 44° WSW 20:17:12 44° WSW 20:21:25 10° WSW
Lacrosse 5 4.1 20:14:52 10° WNW 20:16:54 21° W 20:16:54 21° W
Cosmos 2082 Rocket 4.5 20:18:24 10° NNW 20:19:37 17° NNW 20:19:37 17° NNW
USA 281 4.5 20:28:56 33° NNW 20:28:56 33° NNW 20:32:20 10° NNW
NOSS 3-1 (A) 4.5 20:20:18 10° NW 20:25:31 53° NW 20:25:31 53° NW
ATLAS 2AS CENTAUR R/B 4.3 20:29:05 10° WNW 20:35:28 30° NNW 20:35:28 30° NNW
